DW3397 Weather Reports


Display with metric or nautical units.
time (UTC)temp
F
wind
direction
speed
MPH
gust
MPH
rain 1hr
in
rain 24hr
in
rain mn
in
humidity
%
barometer
mb
20210417125727 60 135 0.0 0.0 0.00 0.00 0.00 85 1019.3
20210417122624 58 141 0.0 0.0 0.00 0.00 0.00 89 1019.5
20210417121139 57 135 0.0 0.0 0.00 0.00 0.00 92 1019.3
20210417120346 56 135 0.0 0.0 0.00 0.00 0.00 93 1019.3
20210417115945 56 137 0.0 0.0 0.00 0.00 0.00 94 1019.0
20210417114221 56 137 0.0 0.0 0.00 0.00 0.00 94 1018.7
20210417113619 55 135 0.0 0.0 0.00 0.00 0.00 93 1018.8
20210417113335 55 135 0.0 0.0 0.00 0.00 0.00 93 1018.5
20210417112902 56 136 0.0 0.0 0.00 0.00 0.00 93 1018.3
20210417112057 56 135 0.0 0.0 0.00 0.00 0.00 92 1017.9
20210417111525 56 135 0.0 0.0 0.00 0.00 0.00 92 1018.0
20210417110721 57 134 0.0 0.0 0.00 0.00 0.00 91 1017.9
20210417110429 57 134 0.0 0.0 0.00 0.00 0.00 91 1017.8
20210417105837 57 135 0.0 0.0 0.00 0.00 0.00 89 1017.9
20210417104333 57 135 0.0 0.0 0.00 0.00 0.00 89 1018.0
20210417103425 58 129 0.0 0.0 0.00 0.00 0.00 88 1017.8
20210417102757 58 129 0.0 0.0 0.00 0.00 0.00 88 1017.6
20210417101255 58 131 0.0 0.0 0.00 0.00 0.00 88 1017.7
20210417100434 57 131 0.0 0.0 0.00 0.00 0.00 88 1017.8
20210417095510 57 134 0.0 0.0 0.00 0.00 0.00 88 1018.0
20210417095250 57 134 0.0 0.0 0.00 0.00 0.00 89 1017.8
20210417094447 57 134 0.0 0.0 0.00 0.00 0.00 89 1017.9
20210417093236 57 134 0.0 0.0 0.00 0.00 0.00 89 1017.8
20210417092715 57 134 0.0 0.0 0.00 0.00 0.00 89 1017.9
20210417091536 57 134 0.0 0.0 0.00 0.00 0.00 89 1018.1
20210417090947 57 134 0.0 0.0 0.00 0.00 0.00 89 1018.1
20210417090252 57 134 0.0 0.0 0.00 0.00 0.00 89 1017.7
20210417085747 56 132 0.0 0.0 0.00 0.00 0.00 89 1018.0
20210417085033 56 132 0.0 0.0 0.00 0.00 0.00 89 1018.0
20210417084418 56 132 0.0 0.0 0.00 0.00 0.00 89 1017.9
20210417083413 57 132 0.0 0.0 0.00 0.00 0.00 87 1017.6
20210417082543 57 132 0.0 0.0 0.00 0.00 0.00 87 1018.1
20210417081842 57 132 0.0 0.0 0.00 0.00 0.00 87 1017.8
20210417081451 57 131 0.0 0.0 0.00 0.00 0.00 86 1017.8
20210417080926 57 131 0.0 0.0 0.00 0.00 0.00 86 1017.6
20210417052649 59 128 0.0 0.0 0.00 0.00 0.00 79 1018.3
20210417051145 59 128 0.0 0.0 0.00 0.00 0.00 79 1018.4
20210417045755 59 135 0.0 0.0 0.00 0.00 0.00 77 1018.5
20210417045244 59 135 0.0 0.0 0.00 0.00 0.00 77 1018.2
20210417044330 59 135 0.0 0.0 0.00 0.00 0.00 77 1018.5
20210417043450 59 135 0.0 0.0 0.00 0.00 0.00 77 1018.3
20210417042720 59 135 0.0 0.0 0.00 0.00 0.00 78 1018.5
20210417042149 59 135 0.0 0.0 0.00 0.00 0.00 78 1018.3
20210417041530 59 135 0.0 0.0 0.00 0.00 0.00 77 1018.6
20210417040938 59 135 0.0 0.0 0.00 0.00 0.00 77 1018.8
20210417040746 59 135 0.0 0.0 0.00 0.00 0.00 77 1018.6
20210417035526 59 134 0.0 0.0 0.00 0.00 0.00 76 1018.3
20210417034258 59 141 0.0 0.0 0.00 0.00 0.00 78 1018.3
20210417033436 59 141 0.0 0.0 0.00 0.00 0.00 77 1018.3
20210417032441 59 141 0.0 0.0 0.00 0.00 0.00 79 1018.9
20210417031315 60 140 0.0 0.0 0.00 0.00 0.00 78 1018.3
20210417030520 60 142 0.0 0.0 0.00 0.00 0.00 77 1018.5
20210417025657 60 135 0.0 0.0 0.00 0.00 0.00 74 1018.7
20210417024226 60 135 0.0 0.0 0.00 0.00 0.00 72 1018.3
20210417023242 60 139 0.0 0.0 0.00 0.00 0.00 72 1018.9
20210417022658 60 138 0.0 0.0 0.00 0.00 0.00 73 1018.6
20210417021528 60 141 0.0 0.0 0.00 0.00 0.00 69 1018.5
20210417020538 61 128 0.0 0.0 0.00 0.00 0.00 68 1018.4
20210417020256 61 128 0.0 0.0 0.00 0.00 0.00 66 1018.3
20210417015532 61 128 0.0 0.0 0.00 0.00 0.00 65 1018.4
20210417015055 61 128 0.0 0.0 0.00 0.00 0.00 65 1018.4
20210417014227 61 128 0.0 0.0 0.00 0.00 0.00 64 1018.2
20210417013410 62 128 0.0 0.0 0.00 0.00 0.00 64 1018.2
20210417012842 62 128 0.0 0.0 0.00 0.00 0.00 65 1017.7
20210417011520 62 128 0.0 0.0 0.00 0.00 0.00 65 1017.5
20210417010950 62 130 0.0 0.0 0.00 0.00 0.00 65 1017.6
20210417005800 62 133 0.0 0.0 0.00 0.00 0.00 65 1017.9
20210417004315 62 133 0.0 0.0 0.00 0.00 0.00 66 1017.7
20210417003525 62 133 0.0 0.0 0.00 0.00 0.00 65 1017.9
20210417002743 62 133 0.0 0.0 0.00 0.00 0.00 65 1018.2
20210417001903 62 133 0.0 0.0 0.00 0.00 0.00 61 1018.5
20210417001547 62 133 0.0 0.0 0.00 0.00 0.00 63 1018.2
20210417001103 62 133 0.0 0.0 0.00 0.00 0.00 62 1018.4
20210417000321 63 133 0.0 0.0 0.00 0.00 0.00 61 1018.3
20210416235728 63 133 0.0 0.0 0.00 0.00 0.00 59 1018.4
20210416234320 63 135 0.0 0.0 0.00 0.00 0.00 59 1018.2
20210416234034 63 135 0.0 0.0 0.00 0.00 0.00 59 1018.5
20210416232930 64 135 0.0 0.0 0.00 0.00 0.00 58 1018.1
20210416232709 64 135 0.0 0.0 0.00 0.00 0.00 57 1018.2
20210416231534 64 135 0.0 0.0 0.00 0.00 0.00 56 1018.0
20210416230452 64 135 0.0 0.0 0.00 0.00 0.00 55 1018.2
20210416225847 64 130 0.0 0.0 0.00 0.00 0.00 55 1018.0
20210416224341 64 133 0.0 0.0 0.00 0.00 0.00 55 1018.1
20210416223312 65 132 0.0 0.0 0.00 0.00 0.00 52 1018.3
20210416222725 66 153 0.0 0.0 0.00 0.00 0.00 55 1018.3
20210416221218 66 141 0.0 0.0 0.00 0.00 0.00 52 1018.4
20210416220858 65 136 0.0 0.0 0.00 0.00 0.00 53 1018.2
20210416215942 65 131 0.0 0.0 0.00 0.00 0.00 53 1017.8
20210416215752 65 131 0.0 0.0 0.00 0.00 0.00 53 1017.8
20210416214325 65 131 0.0 0.0 0.00 0.00 0.00 53 1017.8
20210416213342 65 129 0.0 0.0 0.00 0.00 0.00 52 1017.7
20210416212701 65 132 0.0 0.0 0.00 0.00 0.00 54 1017.7
20210416211433 65 116 1.0 2.0 0.00 0.00 0.00 53 1017.7
20210416210913 65 129 0.0 0.0 0.00 0.00 0.00 52 1017.7
20210416205451 64 126 2.0 2.0 0.00 0.00 0.00 53 1018.0
20210416204448 65 125 1.0 2.0 0.00 0.00 0.00 53 1017.8
20210416204237 65 130 0.0 0.0 0.00 0.00 0.00 53 1017.9
20210416203422 65 119 0.0 0.0 0.00 0.00 0.00 53 1018.2
20210416203322 65 119 0.0 0.0 0.00 0.00 0.00 53 1018.2
20210416202528 65 123 1.0 2.0 0.00 0.00 0.00 51 1018.0
20210416201527 66 137 0.0 0.0 0.00 0.00 0.00 50 1018.4
20210416201233 66 131 1.0 2.0 0.00 0.00 0.00 49 1018.2
20210416200940 66 137 1.0 2.0 0.00 0.00 0.00 48 1018.6
20210416195849 67 190 1.0 2.0 0.00 0.00 0.00 46 1018.4
20210416194243 68 144 0.0 0.0 0.00 0.00 0.00 45 1018.6
20210416193433 67 145 1.0 2.0 0.00 0.00 0.00 44 1018.5
20210416193050 69 125 0.0 0.0 0.00 0.00 0.00 45 1018.6
20210416192934 69 139 0.0 0.0 0.00 0.00 0.00 44 1018.5
20210416191249 68 140 0.0 0.0 0.00 0.00 0.00 47 1018.5
20210416190545 67 128 1.0 2.0 0.00 0.00 0.00 46 1018.4
20210416185840 65 134 0.0 0.0 0.00 0.00 0.00 46 1018.5
20210416185221 65 143 0.0 0.0 0.00 0.00 0.00 48 1018.7
20210416184340 64 116 1.0 2.0 0.00 0.00 0.00 47 1018.7
20210416183451 65 140 0.0 0.0 0.00 0.00 0.00 47 1018.7
20210416182817 65 143 0.0 0.0 0.00 0.00 0.00 46 1018.8
20210416181450 66 223 1.0 2.0 0.00 0.00 0.00 44 1018.9
20210416181050 66 165 1.0 2.0 0.00 0.00 0.00 43 1019.1
20210416180910 66 120 0.0 0.0 0.00 0.00 0.00 42 1019.2
20210416175432 66 123 1.0 2.0 0.00 0.00 0.00 46 1019.2
20210416174430 66 174 0.0 0.0 0.00 0.00 0.00 46 1019.3
20210416174401 66 140 1.0 2.0 0.00 0.00 0.00 47 1019.2
20210416173349 66 180 2.0 3.0 0.00 0.00 0.00 46 1019.5
20210416172636 64 146 2.0 2.0 0.00 0.00 0.00 48 1019.3
20210416171438 62 117 1.0 2.0 0.00 0.00 0.00 53 1019.4
20210416170824 62 120 2.0 3.0 0.00 0.00 0.00 52 1019.4
20210416165846 61 135 0.0 0.0 0.00 0.00 0.00 56 1019.8
20210416165805 61 126 0.0 0.0 0.00 0.00 0.00 54 1020.1
20210416164149 59 144 0.0 0.0 0.00 0.00 0.00 58 1019.7
20210416163846 59 141 0.0 0.0 0.00 0.00 0.00 57 1019.7
20210416163443 59 140 1.0 2.0 0.00 0.00 0.00 57 1019.9
20210416162526 59 135 0.0 0.0 0.00 0.00 0.00 60 1020.4
20210416161540 59 140 0.0 0.0 0.00 0.00 0.00 59 1020.6
20210416160937 58 135 0.0 0.0 0.00 0.00 0.00 59 1020.6
20210416160045 58 119 1.0 2.0 0.00 0.00 0.00 61 1020.7
20210416155822 58 142 0.0 0.0 0.00 0.00 0.00 61 1020.8
20210416154358 58 109 2.0 2.0 0.00 0.00 0.00 59 1020.7
20210416153332 58 132 0.0 0.0 0.00 0.00 0.00 60 1020.8
20210416153307 58 128 0.0 0.0 0.00 0.00 0.00 61 1020.8
20210416152701 57 133 0.0 0.0 0.00 0.00 0.00 62 1020.7
20210416151510 57 132 0.0 0.0 0.00 0.00 0.00 63 1021.0
20210416150444 57 130 0.0 0.0 0.00 0.00 0.00 63 1020.9
20210416145844 57 119 0.0 0.0 0.00 0.00 0.00 67 1021.2
20210416144218 57 126 1.0 2.0 0.00 0.00 0.00 69 1021.2
20210416143332 57 131 0.0 0.0 0.00 0.00 0.00 67 1021.5
20210416143138 57 128 0.0 0.0 0.00 0.00 0.00 66 1021.4
20210416142829 57 131 0.0 0.0 0.00 0.00 0.00 66 1021.7
20210416141302 57 128 0.0 0.0 0.00 0.00 0.00 60 1021.8
20210416140831 57 127 1.0 2.0 0.00 0.00 0.00 59 1021.8
20210416140513 57 101 1.0 2.0 0.00 0.00 0.00 59 1021.5
20210416135919 57 127 0.0 0.0 0.00 0.00 0.00 61 1021.6
20210416134152 57 130 0.0 0.0 0.00 0.00 0.00 59 1021.7
20210416133152 57 127 0.0 0.0 0.00 0.00 0.00 59 1021.6